Regional Weather Roundup
Issued by NWS Mobile, AL

Home | Current Version | Previous Version | Text Only | Print | Product List | Glossary On
Versions: 1 2 3 4 5 6 7 8 9 10 11 12 13 14 15 16 17 18 19 20 21 22 23 24 25 26 27
000
ASUS44 KMOB 170310
RWRMOB
REGIONAL WEATHER ROUNDUP
NATIONAL WEATHER SERVICE MOBILE AL
1000 PM CDT WED APR 16 2014

NOTE: "FAIR" INDICATES FEW OR NO CLOUDS BELOW 12,000 FEET WITH NO
      SIGNIFICANT WEATHER AND/OR OBSTRUCTIONS TO VISIBILITY.

  * THESE STATIONS ARE PART OF THE UNIVERSITY OF SOUTH ALABAMA
    MESONET AND ARE NOT UNDER NWS OR FAA QUALITY CONTROL.

ALZ061>064-170400-
COASTAL ALABAMA

CITY           SKY/WX    TMP DP  RH WIND       PRES   REMARKS
MOBILE REG APT PTCLDY    49  46  90 NE3       30.16F
BROOKLEY FIELD PTCLDY    55  48  77 SE8       30.17F
USA CAMPUS*      N/A     48  45  87 CALM      30.17S
DOG RIVER*     NOT AVBL


CITY           SKY/WX    TMP DP  RH WIND       PRES   REMARKS
MOUNT VERNON*    N/A     46  45  93 CALM      30.18R
SARALAND*      NOT AVBL
BAY MINETTE*   NOT AVBL
LOXLEY*        NOT AVBL
ROBERTSDALE*   NOT AVBL
FAIRHOPE*      NOT AVBL
ELBERTA*       NOT AVBL
FOLEY*         NOT AVBL
GRAND BAY*       N/A     48  46  93 CALM      30.14S
DAUPHIN ISLND* NOT AVBL
BON SCOUR NWR* NOT AVBL
GULF SHORES    PTCLDY    49  48  96 CALM      30.16S

$$

ALZ051>060-170400-
INTERIOR SOUTHWEST AND SOUTH CENTRAL ALABAMA

CITY           SKY/WX    TMP DP  RH WIND       PRES   REMARKS
GREENVILLE     PTCLDY    51  38  60 E6        30.21
EVERGREEN      PTCLDY    49  45  86 CALM      30.21R
CASTLEBERRY*   NOT AVBL
ATMORE*          N/A     52  46  82 CALM      30.20R
DIXIE*         NOT AVBL
ANDALUSIA/OPP  CLEAR     52  41  66 CALM      30.20S
ANDALUSIA*     NOT AVBL
FLORALA APT    CLEAR     54  40  59 E5        30.21S
FLORALA*         N/A     54  41  62 CALM      30.17S

$$

FLZ001>006-170400-
WESTERN FLORIDA PANHANDLE

CITY           SKY/WX    TMP DP  RH WIND       PRES   REMARKS
PENSACOLA      CLEAR     54  45  71 N5        30.17R
NAS PENSACOLA  MOCLDY    50  48  93 CALM      30.17R
MILTON         PTCLDY    47  44  90 NE3       30.19R
WHTNG S FIELD  PTCLDY    54  45  71 NE5       30.19R


CITY           SKY/WX    TMP DP  RH WIND       PRES   REMARKS
WALNUT HILL*   NOT AVBL
JAY*           NOT AVBL
DUKE FIELD     PTCLDY    54  41  61 NE3       30.17S
CRESTVIEW      CLEAR     49  45  86 CALM      30.20R
VALPARAISO     CLEAR     59  43  56 NE5       30.18R
DESTIN           N/A    N/A N/A N/A MISG      30.18R

$$

MSZ076-079-170400-
INTERIOR SOUTHEAST MISSISSIPPI

CITY           SKY/WX    TMP DP  RH WIND       PRES   REMARKS
LEAKESVILLE*     N/A     52  41  66 CALM      30.17R
AGRICOLA*      NOT AVBL

$$

MARINE OBSERVATIONS

STATION/POSITION TIME  TEMP    WIND        PRES    WAVE
                       AIR SEA DIR/SP/G            HT/PER
                 (UTC) (F)     (DEG/KT/KT) (MB)    (FT/S)
PASCAGOULA       0300   57     120/  2/  5 1020.9R
PETIT BOIS ISLND 0300   58     110/  8/ 10 1021.2R
GRAND BAY        0200   58     130/  9     1021.0S
KATRINA CUT      0200   59     120/  9     1021.7R
CEDAR POINT      0200   58     130/  7     1021.0S
E DAUPHIN ISLAND 0300   60     100/  8/  9 1020.9S
MIDDLE BAY LIGHT 0200   59     120/  9     1020.6R
USCG MOBILE BAY  0300   58 63  120/  5/  7 1020.2S
STATE DOCKS      0300   58 63              1021.0F
MEAHER PARK      0200   56     100/  3     1022.0R
WEEKS BAY        0200   50                   N/A
FORT MORGAN      0300   59     120/  9/ 10 1020.7F
12 S ORANGE BCH  0300   61 66  110/ 12/ 14 1021.3R   2/ 5
PENSACOLA BAY    0300   59 68   10/  2/  2 1022.0R
64 S DAUPHIN ISL 0218   62 69  100/ 19/ 23 1020.6R
67 S FORT MORGAN 0200   61                 1020.3R

$$

SELECTED LOCATIONS ACROSS THE REGION

CITY           SKY/WX    TMP DP  RH WIND       PRES   REMARKS
NEW ORLEANS    CLEAR     53  45  74 SE3       30.17R
GULFPORT       PTCLDY    53  47  79 SE7       30.16R
PASCAGOULA AP  CLEAR     48  47  96 CALM      30.17R
PASCAGOULA*      N/A     55  48  76 CALM      30.16R
HATTIESBURG    PTCLDY    50  45  83 SE5       30.17R
LAUREL         MOCLDY    48  39  71 S7        30.16R
MERIDIAN       MOCLDY    49  44  83 CALM      30.17R
JACKSON        PTCLDY    51  38  60 E7        30.14R
MONTGOMERY     PTCLDY    51  40  65 E5        30.23R
TROY           CLEAR     48  40  73 E3        30.23S
KINSTON*       NOT AVBL
GENEVA*          N/A     54  41  62 E5        30.23R
ASHFORD*       NOT AVBL
DOTHAN         CLEAR     54  40  59 E6        30.26R
PANAMA CITY    CLEAR     55  47  74 NE6       30.17S

$$




USA.gov is the U.S. government's official web portal to all federal, state and local government web resources and services.